Time,TemperatureF,DewpointF,PressureIn,WindDirection,WindDirectionDegrees,WindSpeedMPH,WindSpeedGustMPH,Humidity,HourlyPrecipIn,Conditions,Clouds,dailyrainin,SoftwareType,DateUTC
2013-03-26 00:01:00,52.7,30.8,29.97,West,270,2.0,9.0,43,0.00,,,-99.99,WeatherLink 5.5,2013-03-26 04:01:00,
2013-03-26 00:10:00,51.9,30.1,29.97,West,270,4.0,11.0,43,0.00,,,-99.99,WeatherLink 5.5,2013-03-26 04:10:00,
2013-03-26 00:11:00,53.2,30.7,29.97,West,270,4.0,13.0,42,0.00,,,-99.99,WeatherLink 5.5,2013-03-26 04:11:00,
2013-03-26 00:15:00,50.6,49.2,29.97,WNW,292,3.0,12.0,95,0.00,,,-99.99,WeatherLink 5.5,2013-03-26 04:15:00,
2013-03-26 00:20:00,47.5,-99.9,29.97,WNW,292,5.0,13.0,-999,0.00,,,-99.99,WeatherLink 5.5,2013-03-26 04:20:00,
2013-03-26 00:30:00,48.6,27.1,29.97,WNW,292,4.0,10.0,43,0.00,,,-99.99,WeatherLink 5.5,2013-03-26 04:30:00,
2013-03-26 00:40:00,53.6,32.8,29.97,West,270,2.0,8.0,45,0.00,,,-99.99,WeatherLink 5.5,2013-03-26 04:40:00,
2013-03-26 00:50:00,61.4,38.1,29.97,WNW,292,4.0,9.0,42,0.00,,,-99.99,WeatherLink 5.5,2013-03-26 04:50:00,
2013-03-26 00:56:00,61.4,38.1,29.97,WNW,292,4.0,9.0,42,0.00,,,-99.99,WeatherLink 5.5,2013-03-26 04:56:00,
2013-03-26 01:00:00,61.4,37.5,29.98,WNW,292,3.0,10.0,41,0.00,,,-99.99,WeatherLink 5.5,2013-03-26 05:00:00,
2013-03-26 01:01:00,61.4,37.5,29.98,WNW,292,3.0,10.0,41,0.00,,,-99.99,WeatherLink 5.5,2013-03-26 05:01:00,
2013-03-26 01:05:00,61.5,37.6,29.98,WNW,292,3.0,11.0,41,0.00,,,-99.99,WeatherLink 5.5,2013-03-26 05:05:00,
2013-03-26 01:11:00,61.5,37.6,29.98,WNW,292,3.0,11.0,41,0.00,,,-99.99,WeatherLink 5.5,2013-03-26 05:11:00,
2013-03-26 01:15:00,61.5,38.2,29.98,WNW,292,6.0,16.0,42,0.00,,,-99.99,WeatherLink 5.5,2013-03-26 05:15:00,
2013-03-26 01:20:00,61.4,38.7,29.98,NW,315,7.0,12.0,43,0.00,,,-99.99,WeatherLink 5.5,2013-03-26 05:20:00,
2013-03-26 01:25:00,61.2,39.1,29.98,WNW,292,3.0,9.0,44,0.00,,,-99.99,WeatherLink 5.5,2013-03-26 05:25:00,
2013-03-26 01:26:00,61.4,38.7,29.98,NW,315,7.0,12.0,43,0.00,,,-99.99,WeatherLink 5.5,2013-03-26 05:26:00,
2013-03-26 01:35:00,60.6,37.4,29.98,NW,315,7.0,17.0,42,0.00,,,-99.99,WeatherLink 5.5,2013-03-26 05:35:00,
2013-03-26 01:40:00,60.3,37.7,29.98,WNW,292,9.0,19.0,43,0.00,,,-99.99,WeatherLink 5.5,2013-03-26 05:40:00,
2013-03-26 01:45:00,60.0,38.0,29.99,NW,315,7.0,14.0,44,0.00,,,-99.99,WeatherLink 5.5,2013-03-26 05:45:00,
2013-03-26 01:46:00,60.3,37.7,29.98,WNW,292,9.0,19.0,43,0.00,,,-99.99,WeatherLink 5.5,2013-03-26 05:46:00,
2013-03-26 01:50:00,59.8,38.4,29.99,WNW,292,7.0,16.0,45,0.00,,,-99.99,WeatherLink 5.5,2013-03-26 05:50:00,
2013-03-26 01:55:00,59.5,37.6,29.98,NW,315,7.0,18.0,44,0.00,,,-99.99,WeatherLink 5.5,2013-03-26 05:55:00,
2013-03-26 01:56:00,59.8,38.4,29.99,WNW,292,7.0,16.0,45,0.00,,,-99.99,WeatherLink 5.5,2013-03-26 05:56:00,
2013-03-26 02:00:00,59.3,37.9,29.98,NW,315,6.0,14.0,45,0.00,,,-99.99,WeatherLink 5.5,2013-03-26 06:00:00,
2013-03-26 02:05:00,59.0,37.1,29.98,NW,315,8.0,17.0,44,0.00,,,-99.99,WeatherLink 5.5,2013-03-26 06:05:00,
2013-03-26 02:06:00,59.3,37.9,29.98,NW,315,6.0,14.0,45,0.00,,,-99.99,WeatherLink 5.5,2013-03-26 06:06:00,
2013-03-26 02:15:00,58.5,36.6,29.99,NW,315,5.0,16.0,44,0.00,,,-99.99,WeatherLink 5.5,2013-03-26 06:15:00,
2013-03-26 02:25:00,58.2,35.8,29.99,WNW,292,7.0,15.0,43,0.00,,,-99.99,WeatherLink 5.5,2013-03-26 06:25:00,
2013-03-26 02:35:00,58.1,35.7,29.99,WNW,292,4.0,10.0,43,0.00,,,-99.99,WeatherLink 5.5,2013-03-26 06:35:00,
2013-03-26 02:50:00,57.7,35.3,29.98,NW,315,6.0,14.0,43,0.00,,,-99.99,WeatherLink 5.5,2013-03-26 06:50:00,
2013-03-26 02:51:00,57.8,36.0,29.98,NW,315,4.0,11.0,44,0.00,,,-99.99,WeatherLink 5.5,2013-03-26 06:51:00,
2013-03-26 02:55:00,57.4,35.1,29.98,WNW,292,5.0,14.0,43,0.00,,,-99.99,WeatherLink 5.5,2013-03-26 06:55:00,
2013-03-26 02:56:00,57.7,35.3,29.98,NW,315,6.0,14.0,43,0.00,,,-99.99,WeatherLink 5.5,2013-03-26 06:56:00,
2013-03-26 03:00:00,57.1,35.4,29.99,NW,315,6.0,14.0,44,0.00,,,-99.99,WeatherLink 5.5,2013-03-26 07:00:00,
2013-03-26 03:10:00,55.8,34.8,29.98,WNW,292,2.0,12.0,45,0.00,,,-99.99,WeatherLink 5.5,2013-03-26 07:10:00,
2013-03-26 03:15:00,55.2,34.2,29.98,NW,315,3.0,14.0,45,0.00,,,-99.99,WeatherLink 5.5,2013-03-26 07:15:00,
2013-03-26 03:16:00,55.8,34.8,29.98,WNW,292,2.0,12.0,45,0.00,,,-99.99,WeatherLink 5.5,2013-03-26 07:16:00,
2013-03-26 03:20:00,54.5,33.6,29.98,WNW,292,5.0,13.0,45,0.00,,,-99.99,WeatherLink 5.5,2013-03-26 07:20:00,
2013-03-26 03:25:00,54.3,33.4,29.98,NW,315,6.0,13.0,45,0.00,,,-99.99,WeatherLink 5.5,2013-03-26 07:25:00,
2013-03-26 03:26:00,54.5,33.6,29.98,WNW,292,5.0,13.0,45,0.00,,,-99.99,WeatherLink 5.5,2013-03-26 07:26:00,
2013-03-26 03:30:00,54.2,33.3,29.97,NW,315,5.0,16.0,45,0.00,,,-99.99,WeatherLink 5.5,2013-03-26 07:30:00,
2013-03-26 03:35:00,54.2,33.3,29.97,NW,315,5.0,16.0,45,0.00,,,-99.99,WeatherLink 5.5,2013-03-26 07:35:00,
2013-03-26 03:41:00,54.2,33.3,29.97,NW,315,6.0,14.0,45,0.00,,,-99.99,WeatherLink 5.5,2013-03-26 07:41:00,
2013-03-26 03:45:00,54.2,33.3,29.97,NW,315,6.0,15.0,45,0.00,,,-99.99,WeatherLink 5.5,2013-03-26 07:45:00,
2013-03-26 03:50:00,54.2,32.7,29.99,NW,315,4.0,14.0,44,0.00,,,-99.99,WeatherLink 5.5,2013-03-26 07:50:00,
2013-03-26 03:51:00,54.2,33.3,29.97,NW,315,6.0,15.0,45,0.00,,,-99.99,WeatherLink 5.5,2013-03-26 07:51:00,
2013-03-26 04:00:00,54.1,33.2,29.99,NW,315,4.0,10.0,45,0.00,,,-99.99,WeatherLink 5.5,2013-03-26 08:00:00,
2013-03-26 04:01:00,54.1,33.2,29.99,NW,315,4.0,10.0,45,0.00,,,-99.99,WeatherLink 5.5,2013-03-26 08:01:00,
2013-03-26 04:05:00,54.1,33.2,30.00,WNW,292,4.0,12.0,45,0.00,,,-99.99,WeatherLink 5.5,2013-03-26 08:05:00,
2013-03-26 04:15:00,54.0,33.7,29.98,NW,315,4.0,14.0,46,0.00,,,-99.99,WeatherLink 5.5,2013-03-26 08:15:00,
2013-03-26 04:21:00,54.0,33.7,29.98,NW,315,4.0,14.0,46,0.00,,,-99.99,WeatherLink 5.5,2013-03-26 08:21:00,
2013-03-26 04:25:00,54.0,33.7,29.99,NW,315,4.0,12.0,46,0.00,,,-99.99,WeatherLink 5.5,2013-03-26 08:25:00,
2013-03-26 04:30:00,53.9,34.1,29.99,WNW,292,6.0,15.0,47,0.00,,,-99.99,WeatherLink 5.5,2013-03-26 08:30:00,
2013-03-26 04:31:00,54.0,33.7,29.99,NW,315,4.0,12.0,46,0.00,,,-99.99,WeatherLink 5.5,2013-03-26 08:31:00,
2013-03-26 04:40:00,53.8,34.6,29.98,NW,315,4.0,10.0,48,0.00,,,-99.99,WeatherLink 5.5,2013-03-26 08:40:00,
2013-03-26 04:50:00,53.8,35.1,29.99,WNW,292,4.0,12.0,49,0.00,,,-99.99,WeatherLink 5.5,2013-03-26 08:50:00,
2013-03-26 04:55:00,53.7,35.5,29.99,NW,315,4.0,13.0,50,0.00,,,-99.99,WeatherLink 5.5,2013-03-26 08:55:00,
2013-03-26 05:00:00,53.7,35.5,29.99,NW,315,4.0,13.0,50,0.00,,,-99.99,WeatherLink 5.5,2013-03-26 09:00:00,
2013-03-26 05:05:00,51.7,33.6,29.99,NW,315,2.0,9.0,50,0.00,,,-99.99,WeatherLink 5.5,2013-03-26 09:05:00,
2013-03-26 05:10:00,51.7,33.6,29.99,NW,315,2.0,9.0,50,0.00,,,-99.99,WeatherLink 5.5,2013-03-26 09:10:00,
2013-03-26 05:16:00,51.8,34.7,29.99,WNW,292,2.0,8.0,52,0.00,,,-99.99,WeatherLink 5.5,2013-03-26 09:16:00,
2013-03-26 05:25:00,49.3,32.4,30.00,NW,315,6.0,13.0,52,0.00,,,-99.99,WeatherLink 5.5,2013-03-26 09:25:00,
2013-03-26 05:26:00,45.5,29.8,29.99,NW,315,2.0,11.0,54,0.00,,,-99.99,WeatherLink 5.5,2013-03-26 09:26:00,
2013-03-26 05:30:00,49.6,32.7,30.00,NW,315,4.0,11.0,52,0.00,,,-99.99,WeatherLink 5.5,2013-03-26 09:30:00,
2013-03-26 05:36:00,49.6,32.7,30.00,NW,315,4.0,11.0,52,0.00,,,-99.99,WeatherLink 5.5,2013-03-26 09:36:00,
2013-03-26 05:40:00,48.1,30.8,30.00,WNW,292,2.0,9.0,51,0.00,,,-99.99,WeatherLink 5.5,2013-03-26 09:40:00,
2013-03-26 05:46:00,48.1,30.8,30.00,WNW,292,2.0,9.0,51,0.00,,,-99.99,WeatherLink 5.5,2013-03-26 09:46:00,
2013-03-26 05:50:00,55.5,36.1,30.00,NW,315,3.0,9.0,48,0.00,,,-99.99,WeatherLink 5.5,2013-03-26 09:50:00,
2013-03-26 05:55:00,56.2,36.8,30.00,NW,315,4.0,11.0,48,0.00,,,-99.99,WeatherLink 5.5,2013-03-26 09:55:00,
2013-03-26 06:00:00,56.2,36.8,30.01,NW,315,2.0,8.0,48,0.00,,,-99.99,WeatherLink 5.5,2013-03-26 10:00:00,
2013-03-26 06:01:00,56.2,36.8,30.00,NW,315,4.0,11.0,48,0.00,,,-99.99,WeatherLink 5.5,2013-03-26 10:01:00,
2013-03-26 06:15:00,56.2,36.8,30.01,WNW,292,4.0,11.0,48,0.00,,,-99.99,WeatherLink 5.5,2013-03-26 10:15:00,
2013-03-26 06:16:00,56.2,36.2,30.01,NNW,337,3.0,11.0,47,0.00,,,-99.99,WeatherLink 5.5,2013-03-26 10:16:00,
2013-03-26 06:20:00,56.2,36.2,30.02,NW,315,3.0,13.0,47,0.00,,,-99.99,WeatherLink 5.5,2013-03-26 10:20:00,
2013-03-26 06:26:00,56.2,36.2,30.02,NW,315,3.0,13.0,47,0.00,,,-99.99,WeatherLink 5.5,2013-03-26 10:26:00,
2013-03-26 06:30:00,56.1,36.1,30.02,NW,315,3.0,11.0,47,0.00,,,-99.99,WeatherLink 5.5,2013-03-26 10:30:00,
2013-03-26 06:36:00,56.1,36.1,30.02,NW,315,3.0,11.0,47,0.00,,,-99.99,WeatherLink 5.5,2013-03-26 10:36:00,
2013-03-26 06:40:00,55.9,34.8,30.02,NW,315,4.0,10.0,45,0.00,,,-99.99,WeatherLink 5.5,2013-03-26 10:40:00,
2013-03-26 06:41:00,55.9,34.8,30.02,NW,315,4.0,10.0,45,0.00,,,-99.99,WeatherLink 5.5,2013-03-26 10:41:00,
2013-03-26 06:45:00,55.8,34.8,30.03,NW,315,4.0,12.0,45,0.00,,,-99.99,WeatherLink 5.5,2013-03-26 10:45:00,
2013-03-26 06:51:00,55.8,34.8,30.03,NW,315,4.0,12.0,45,0.00,,,-99.99,WeatherLink 5.5,2013-03-26 10:51:00,
2013-03-26 06:56:00,55.7,34.7,30.03,NW,315,3.0,11.0,45,0.00,,,-99.99,WeatherLink 5.5,2013-03-26 10:56:00,
2013-03-26 07:01:00,55.7,35.2,30.03,North,0,2.0,10.0,46,0.00,,,-99.99,WeatherLink 5.5,2013-03-26 11:01:00,
2013-03-26 07:05:00,55.5,35.0,30.03,NW,315,5.0,12.0,46,0.00,,,-99.99,WeatherLink 5.5,2013-03-26 11:05:00,
2013-03-26 07:06:00,55.5,35.0,30.03,NW,315,5.0,12.0,46,0.00,,,-99.99,WeatherLink 5.5,2013-03-26 11:06:00,
2013-03-26 07:10:00,55.4,35.5,30.03,NW,315,1.0,8.0,47,0.00,,,-99.99,WeatherLink 5.5,2013-03-26 11:10:00,
2013-03-26 07:15:00,55.2,35.3,30.03,NW,315,2.0,9.0,47,0.00,,,-99.99,WeatherLink 5.5,2013-03-26 11:15:00,
2013-03-26 07:16:00,55.4,35.5,30.03,NW,315,1.0,8.0,47,0.00,,,-99.99,WeatherLink 5.5,2013-03-26 11:16:00,
2013-03-26 07:21:00,55.2,35.3,30.03,NW,315,2.0,9.0,47,0.00,,,-99.99,WeatherLink 5.5,2013-03-26 11:21:00,
2013-03-26 07:30:00,55.1,35.2,30.03,NNW,337,1.0,6.0,47,0.00,,,-99.99,WeatherLink 5.5,2013-03-26 11:30:00,
2013-03-26 07:31:00,55.1,34.7,30.03,NW,315,1.0,8.0,46,0.00,,,-99.99,WeatherLink 5.5,2013-03-26 11:31:00,
2013-03-26 07:35:00,55.0,34.0,30.04,NW,315,2.0,10.0,45,0.00,,,-99.99,WeatherLink 5.5,2013-03-26 11:35:00,
2013-03-26 07:40:00,54.9,34.5,30.04,WNW,292,2.0,8.0,46,0.00,,,-99.99,WeatherLink 5.5,2013-03-26 11:40:00,
2013-03-26 07:45:00,54.9,35.0,30.04,WNW,292,2.0,8.0,47,0.00,,,-99.99,WeatherLink 5.5,2013-03-26 11:45:00,
2013-03-26 07:46:00,54.9,34.5,30.04,WNW,292,2.0,8.0,46,0.00,,,-99.99,WeatherLink 5.5,2013-03-26 11:46:00,
2013-03-26 07:55:00,54.8,35.5,30.05,NW,315,3.0,11.0,48,0.00,,,-99.99,WeatherLink 5.5,2013-03-26 11:55:00,
2013-03-26 08:01:00,54.8,35.5,30.05,NW,315,3.0,11.0,48,0.00,,,-99.99,WeatherLink 5.5,2013-03-26 12:01:00,
2013-03-26 08:10:00,54.9,35.0,30.05,NW,315,3.0,10.0,47,0.00,,,-99.99,WeatherLink 5.5,2013-03-26 12:10:00,
2013-03-26 08:11:00,54.9,34.5,30.04,NW,315,2.0,9.0,46,0.00,,,-99.99,WeatherLink 5.5,2013-03-26 12:11:00,
2013-03-26 08:15:00,54.8,34.4,30.05,NNW,337,2.0,9.0,46,0.00,,,-99.99,WeatherLink 5.5,2013-03-26 12:15:00,
2013-03-26 08:25:00,54.8,34.9,30.05,NW,315,2.0,9.0,47,0.00,,,-99.99,WeatherLink 5.5,2013-03-26 12:25:00,
2013-03-26 08:35:00,55.2,34.2,30.05,NNW,337,3.0,9.0,45,0.00,,,-99.99,WeatherLink 5.5,2013-03-26 12:35:00,
2013-03-26 08:41:00,55.2,34.2,30.05,NNW,337,3.0,9.0,45,0.00,,,-99.99,WeatherLink 5.5,2013-03-26 12:41:00,
2013-03-26 08:45:00,55.3,34.3,30.06,WNW,292,3.0,11.0,45,0.00,,,-99.99,WeatherLink 5.5,2013-03-26 12:45:00,
2013-03-26 08:50:00,55.3,33.7,30.06,NW,315,4.0,13.0,44,0.00,,,-99.99,WeatherLink 5.5,2013-03-26 12:50:00,
2013-03-26 08:51:00,55.3,34.3,30.06,WNW,292,3.0,11.0,45,0.00,,,-99.99,WeatherLink 5.5,2013-03-26 12:51:00,
2013-03-26 09:00:00,55.8,32.4,30.07,NW,315,3.0,10.0,41,0.00,,,-99.99,WeatherLink 5.5,2013-03-26 13:00:00,
2013-03-26 09:01:00,55.5,33.3,30.06,NW,315,3.0,12.0,43,0.00,,,-99.99,WeatherLink 5.5,2013-03-26 13:01:00,
2013-03-26 09:05:00,56.1,31.5,30.07,NNW,337,3.0,12.0,39,0.00,,,-99.99,WeatherLink 5.5,2013-03-26 13:05:00,
2013-03-26 09:10:00,56.1,31.5,30.07,NNW,337,3.0,12.0,39,0.00,,,-99.99,WeatherLink 5.5,2013-03-26 13:10:00,
2013-03-26 09:16:00,56.5,30.5,30.07,NNW,337,4.0,13.0,37,0.00,,,-99.99,WeatherLink 5.5,2013-03-26 13:16:00,
2013-03-26 09:20:00,57.2,30.5,30.08,NW,315,4.0,12.0,36,0.00,,,-99.99,WeatherLink 5.5,2013-03-26 13:20:00,
2013-03-26 09:25:00,57.4,29.9,30.08,NNW,337,3.0,9.0,35,0.00,,,-99.99,WeatherLink 5.5,2013-03-26 13:25:00,
2013-03-26 09:30:00,57.4,29.9,30.08,NNW,337,3.0,9.0,35,0.00,,,-99.99,WeatherLink 5.5,2013-03-26 13:30:00,
2013-03-26 09:35:00,57.9,28.9,30.08,NNW,337,5.0,12.0,33,0.00,,,-99.99,WeatherLink 5.5,2013-03-26 13:35:00,
2013-03-26 09:40:00,57.9,28.9,30.08,NNW,337,5.0,12.0,33,0.00,,,-99.99,WeatherLink 5.5,2013-03-26 13:40:00,
2013-03-26 09:45:00,58.5,29.5,30.08,North,0,2.0,11.0,33,0.00,,,-99.99,WeatherLink 5.5,2013-03-26 13:45:00,
2013-03-26 09:50:00,58.5,29.5,30.08,North,0,2.0,11.0,33,0.00,,,-99.99,WeatherLink 5.5,2013-03-26 13:50:00,
2013-03-26 10:00:00,59.5,31.1,30.08,NW,315,6.0,16.0,34,0.00,,,-99.99,WeatherLink 5.5,2013-03-26 14:00:00,
2013-03-26 10:01:00,59.5,31.1,30.08,NW,315,6.0,16.0,34,0.00,,,-99.99,WeatherLink 5.5,2013-03-26 14:01:00,
2013-03-26 10:05:00,58.4,30.1,30.08,NW,315,6.0,16.0,34,0.00,,,-99.99,WeatherLink 5.5,2013-03-26 14:05:00,
2013-03-26 10:15:00,58.9,51.7,30.08,NNW,337,4.0,15.0,77,0.00,,,-99.99,WeatherLink 5.5,2013-03-26 14:15:00,
2013-03-26 10:25:00,60.1,-99.9,30.08,NW,315,5.0,13.0,-999,0.00,,,-99.99,WeatherLink 5.5,2013-03-26 14:25:00,
2013-03-26 10:35:00,60.2,-99.9,30.09,NW,315,4.0,11.0,-999,0.00,,,-99.99,WeatherLink 5.5,2013-03-26 14:35:00,
2013-03-26 10:36:00,60.2,-99.9,30.09,NW,315,4.0,11.0,-999,0.00,,,-99.99,WeatherLink 5.5,2013-03-26 14:36:00,
2013-03-26 10:40:00,60.9,31.6,30.09,NNW,337,5.0,13.0,33,0.00,,,-99.99,WeatherLink 5.5,2013-03-26 14:40:00,
2013-03-26 10:45:00,60.8,31.5,30.09,NW,315,5.0,12.0,33,0.00,,,-99.99,WeatherLink 5.5,2013-03-26 14:45:00,
2013-03-26 10:46:00,60.9,31.6,30.09,NNW,337,5.0,13.0,33,0.00,,,-99.99,WeatherLink 5.5,2013-03-26 14:46:00,
2013-03-26 10:50:00,61.1,32.5,30.09,NNW,337,3.0,10.0,34,0.00,,,-99.99,WeatherLink 5.5,2013-03-26 14:50:00,
2013-03-26 10:55:00,61.5,32.1,30.08,North,0,4.0,10.0,33,0.00,,,-99.99,WeatherLink 5.5,2013-03-26 14:55:00,
2013-03-26 11:00:00,61.5,32.1,30.08,North,0,4.0,10.0,33,0.00,,,-99.99,WeatherLink 5.5,2013-03-26 15:00:00,
2013-03-26 11:16:00,61.6,32.2,30.09,NW,315,4.0,12.0,33,0.00,,,-99.99,WeatherLink 5.5,2013-03-26 15:16:00,
2013-03-26 11:20:00,62.0,33.3,30.08,NW,315,2.0,9.0,34,0.00,,,-99.99,WeatherLink 5.5,2013-03-26 15:20:00,
2013-03-26 11:21:00,61.9,32.5,30.09,NW,315,5.0,13.0,33,0.00,,,-99.99,WeatherLink 5.5,2013-03-26 15:21:00,
2013-03-26 11:25:00,62.7,-99.9,30.09,NW,315,5.0,13.0,-999,0.00,,,-99.99,WeatherLink 5.5,2013-03-26 15:25:00,
2013-03-26 11:31:00,62.7,-99.9,30.09,NW,315,5.0,13.0,-999,0.00,,,-99.99,WeatherLink 5.5,2013-03-26 15:31:00,
2013-03-26 11:35:00,63.1,-99.9,30.09,WNW,292,6.0,14.0,-999,0.00,,,-99.99,WeatherLink 5.5,2013-03-26 15:35:00,
2013-03-26 11:41:00,63.1,-99.9,30.09,WNW,292,6.0,14.0,-999,0.00,,,-99.99,WeatherLink 5.5,2013-03-26 15:41:00,
2013-03-26 11:45:00,63.3,31.3,30.09,NW,315,3.0,10.0,30,0.00,,,-99.99,WeatherLink 5.5,2013-03-26 15:45:00,
2013-03-26 11:46:00,63.3,31.3,30.09,NW,315,3.0,10.0,30,0.00,,,-99.99,WeatherLink 5.5,2013-03-26 15:46:00,
2013-03-26 11:50:00,63.9,29.2,30.09,NW,315,4.0,9.0,27,0.00,,,-99.99,WeatherLink 5.5,2013-03-26 15:50:00,
2013-03-26 12:00:00,63.7,27.2,30.09,NW,315,5.0,12.0,25,0.00,,,-99.99,WeatherLink 5.5,2013-03-26 16:00:00,
2013-03-26 12:06:00,63.7,27.2,30.09,NW,315,5.0,12.0,25,0.00,,,-99.99,WeatherLink 5.5,2013-03-26 16:06:00,
2013-03-26 12:11:00,64.0,26.4,30.09,NW,315,4.0,13.0,24,0.00,,,-99.99,WeatherLink 5.5,2013-03-26 16:11:00,
2013-03-26 12:16:00,64.5,26.9,30.09,WNW,292,7.0,15.0,24,0.00,,,-99.99,WeatherLink 5.5,2013-03-26 16:16:00,
2013-03-26 12:20:00,65.2,25.4,30.09,WNW,292,7.0,14.0,22,0.00,,,-99.99,WeatherLink 5.5,2013-03-26 16:20:00,
2013-03-26 12:25:00,65.5,25.6,30.09,NW,315,3.0,12.0,22,0.00,,,-99.99,WeatherLink 5.5,2013-03-26 16:25:00,
2013-03-26 12:30:00,65.9,25.9,30.09,WNW,292,5.0,14.0,22,0.00,,,-99.99,WeatherLink 5.5,2013-03-26 16:30:00,
2013-03-26 12:31:00,65.5,25.6,30.09,NW,315,3.0,12.0,22,0.00,,,-99.99,WeatherLink 5.5,2013-03-26 16:31:00,
2013-03-26 12:35:00,66.0,26.0,30.09,NW,315,6.0,15.0,22,0.00,,,-99.99,WeatherLink 5.5,2013-03-26 16:35:00,
2013-03-26 12:45:00,66.3,21.5,30.09,NW,315,6.0,15.0,18,0.00,,,-99.99,WeatherLink 5.5,2013-03-26 16:45:00,
2013-03-26 12:46:00,66.1,23.8,30.10,WNW,292,7.0,15.0,20,0.00,,,-99.99,WeatherLink 5.5,2013-03-26 16:46:00,
2013-03-26 12:50:00,66.5,24.2,30.09,West,270,4.0,9.0,20,0.00,,,-99.99,WeatherLink 5.5,2013-03-26 16:50:00,
2013-03-26 12:55:00,66.8,23.2,30.09,WNW,292,5.0,14.0,19,0.00,,,-99.99,WeatherLink 5.5,2013-03-26 16:55:00,
2013-03-26 13:00:00,66.8,23.2,30.09,WNW,292,5.0,14.0,19,0.00,,,-99.99,WeatherLink 5.5,2013-03-26 17:00:00,
2013-03-26 13:10:00,64.5,-99.9,30.08,NW,315,4.0,13.0,-999,0.00,,,-99.99,WeatherLink 5.5,2013-03-26 17:10:00,
2013-03-26 13:15:00,67.1,22.1,30.08,NW,315,4.0,12.0,18,0.00,,,-99.99,WeatherLink 5.5,2013-03-26 17:15:00,
2013-03-26 13:21:00,67.1,22.1,30.08,NW,315,4.0,12.0,18,0.00,,,-99.99,WeatherLink 5.5,2013-03-26 17:21:00,
2013-03-26 13:30:00,67.1,26.9,30.08,WNW,292,8.0,15.0,22,0.00,,,-99.99,WeatherLink 5.5,2013-03-26 17:30:00,
2013-03-26 13:31:00,66.1,26.1,30.08,NW,315,7.0,17.0,22,0.00,,,-99.99,WeatherLink 5.5,2013-03-26 17:31:00,
2013-03-26 13:35:00,67.6,27.4,30.08,West,270,8.0,14.0,22,0.00,,,-99.99,WeatherLink 5.5,2013-03-26 17:35:00,
2013-03-26 13:40:00,68.3,29.0,30.07,NW,315,6.0,13.0,23,0.00,,,-99.99,WeatherLink 5.5,2013-03-26 17:40:00,
2013-03-26 13:45:00,68.3,29.0,30.07,NW,315,6.0,13.0,23,0.00,,,-99.99,WeatherLink 5.5,2013-03-26 17:45:00,
2013-03-26 13:51:00,68.2,27.9,30.07,WNW,292,4.0,14.0,22,0.00,,,-99.99,WeatherLink 5.5,2013-03-26 17:51:00,
2013-03-26 13:55:00,68.5,30.3,30.08,West,270,6.0,14.0,24,0.00,,,-99.99,WeatherLink 5.5,2013-03-26 17:55:00,
2013-03-26 14:00:00,68.7,29.4,30.08,West,270,7.0,17.0,23,0.00,,,-99.99,WeatherLink 5.5,2013-03-26 18:00:00,
2013-03-26 14:05:00,68.5,29.2,30.07,West,270,7.0,15.0,23,0.00,,,-99.99,WeatherLink 5.5,2013-03-26 18:05:00,
2013-03-26 14:06:00,68.7,29.4,30.08,West,270,7.0,17.0,23,0.00,,,-99.99,WeatherLink 5.5,2013-03-26 18:06:00,
2013-03-26 14:11:00,68.5,29.2,30.07,West,270,7.0,15.0,23,0.00,,,-99.99,WeatherLink 5.5,2013-03-26 18:11:00,
2013-03-26 14:15:00,68.8,30.5,30.07,WNW,292,5.0,12.0,24,0.00,,,-99.99,WeatherLink 5.5,2013-03-26 18:15:00,
2013-03-26 14:25:00,69.1,28.6,30.07,West,270,7.0,16.0,22,0.00,,,-99.99,WeatherLink 5.5,2013-03-26 18:25:00,
2013-03-26 14:26:00,69.1,28.6,30.07,West,270,7.0,16.0,22,0.00,,,-99.99,WeatherLink 5.5,2013-03-26 18:26:00,
2013-03-26 14:35:00,68.6,29.3,30.06,NW,315,9.0,19.0,23,0.00,,,-99.99,WeatherLink 5.5,2013-03-26 18:35:00,
2013-03-26 14:36:00,69.0,28.5,30.06,WNW,292,7.0,17.0,22,0.00,,,-99.99,WeatherLink 5.5,2013-03-26 18:36:00,
2013-03-26 14:40:00,68.3,28.0,30.06,WNW,292,7.0,15.0,22,0.00,,,-99.99,WeatherLink 5.5,2013-03-26 18:40:00,
2013-03-26 14:50:00,68.8,28.4,30.06,NW,315,9.0,17.0,22,0.00,,,-99.99,WeatherLink 5.5,2013-03-26 18:50:00,
2013-03-26 14:51:00,68.8,28.4,30.06,NW,315,9.0,17.0,22,0.00,,,-99.99,WeatherLink 5.5,2013-03-26 18:51:00,
2013-03-26 14:55:00,68.7,29.4,30.06,West,270,8.0,19.0,23,0.00,,,-99.99,WeatherLink 5.5,2013-03-26 18:55:00,
2013-03-26 15:01:00,68.7,29.4,30.06,West,270,8.0,19.0,23,0.00,,,-99.99,WeatherLink 5.5,2013-03-26 19:01:00,
2013-03-26 15:05:00,68.4,30.2,30.06,WNW,292,7.0,16.0,24,0.00,,,-99.99,WeatherLink 5.5,2013-03-26 19:05:00,
2013-03-26 15:06:00,68.4,28.0,30.06,WNW,292,9.0,16.0,22,0.00,,,-99.99,WeatherLink 5.5,2013-03-26 19:06:00,
2013-03-26 15:10:00,68.6,30.3,30.06,West,270,7.0,14.0,24,0.00,,,-99.99,WeatherLink 5.5,2013-03-26 19:10:00,
2013-03-26 15:15:00,68.5,27.0,30.06,NW,315,10.0,24.0,21,0.00,,,-99.99,WeatherLink 5.5,2013-03-26 19:15:00,
2013-03-26 15:20:00,67.9,29.7,30.06,West,270,7.0,19.0,24,0.00,,,-99.99,WeatherLink 5.5,2013-03-26 19:20:00,
2013-03-26 15:25:00,67.9,29.7,30.06,West,270,7.0,19.0,24,0.00,,,-99.99,WeatherLink 5.5,2013-03-26 19:25:00,
2013-03-26 15:35:00,68.0,29.8,30.06,West,270,6.0,14.0,24,0.00,,,-99.99,WeatherLink 5.5,2013-03-26 19:35:00,
2013-03-26 15:45:00,67.8,29.7,30.06,West,270,9.0,21.0,24,0.00,,,-99.99,WeatherLink 5.5,2013-03-26 19:45:00,
2013-03-26 15:55:00,67.3,29.2,30.06,WNW,292,8.0,19.0,24,0.00,,,-99.99,WeatherLink 5.5,2013-03-26 19:55:00,
2013-03-26 15:56:00,67.3,29.2,30.06,WNW,292,8.0,19.0,24,0.00,,,-99.99,WeatherLink 5.5,2013-03-26 19:56:00,
2013-03-26 16:00:00,67.4,27.2,30.06,West,270,8.0,17.0,22,0.00,,,-99.99,WeatherLink 5.5,2013-03-26 20:00:00,
2013-03-26 16:10:00,67.2,28.1,30.06,WNW,292,9.0,20.0,23,0.00,,,-99.99,WeatherLink 5.5,2013-03-26 20:10:00,
2013-03-26 16:15:00,67.0,27.9,30.06,WNW,292,9.0,21.0,23,0.00,,,-99.99,WeatherLink 5.5,2013-03-26 20:15:00,
2013-03-26 16:21:00,67.0,27.9,30.06,WNW,292,9.0,21.0,23,0.00,,,-99.99,WeatherLink 5.5,2013-03-26 20:21:00,
2013-03-26 16:25:00,66.7,28.7,30.06,WNW,292,9.0,22.0,24,0.00,,,-99.99,WeatherLink 5.5,2013-03-26 20:25:00,
2013-03-26 16:26:00,66.8,26.7,30.06,NW,315,12.0,27.0,22,0.00,,,-99.99,WeatherLink 5.5,2013-03-26 20:26:00,
2013-03-26 16:30:00,66.6,29.6,30.06,WNW,292,8.0,19.0,25,0.00,,,-99.99,WeatherLink 5.5,2013-03-26 20:30:00,
2013-03-26 16:40:00,66.5,29.6,30.06,WNW,292,8.0,18.0,25,0.00,,,-99.99,WeatherLink 5.5,2013-03-26 20:40:00,
2013-03-26 16:45:00,66.4,29.5,30.05,WNW,292,8.0,18.0,25,0.00,,,-99.99,WeatherLink 5.5,2013-03-26 20:45:00,
2013-03-26 16:55:00,66.4,27.4,30.06,NW,315,9.0,18.0,23,0.00,,,-99.99,WeatherLink 5.5,2013-03-26 20:55:00,
2013-03-26 16:56:00,66.4,27.4,30.06,NW,315,9.0,18.0,23,0.00,,,-99.99,WeatherLink 5.5,2013-03-26 20:56:00,
2013-03-26 17:00:00,66.2,27.3,30.06,WNW,292,8.0,20.0,23,0.00,,,-99.99,WeatherLink 5.5,2013-03-26 21:00:00,
2013-03-26 17:10:00,66.0,30.1,30.06,NW,315,7.0,17.0,26,0.00,,,-99.99,WeatherLink 5.5,2013-03-26 21:10:00,
2013-03-26 17:11:00,66.1,28.2,30.06,West,270,7.0,13.0,24,0.00,,,-99.99,WeatherLink 5.5,2013-03-26 21:11:00,
2013-03-26 17:15:00,65.7,30.8,30.05,WNW,292,7.0,17.0,27,0.00,,,-99.99,WeatherLink 5.5,2013-03-26 21:15:00,
2013-03-26 17:20:00,65.5,31.5,30.06,WNW,292,6.0,13.0,28,0.00,,,-99.99,WeatherLink 5.5,2013-03-26 21:20:00,
2013-03-26 17:25:00,65.6,29.8,30.06,WNW,292,8.0,18.0,26,0.00,,,-99.99,WeatherLink 5.5,2013-03-26 21:25:00,
2013-03-26 17:30:00,65.5,30.6,30.06,West,270,9.0,18.0,27,0.00,,,-99.99,WeatherLink 5.5,2013-03-26 21:30:00,
2013-03-26 17:35:00,65.4,31.4,30.06,West,270,5.0,16.0,28,0.00,,,-99.99,WeatherLink 5.5,2013-03-26 21:35:00,
2013-03-26 17:40:00,65.4,30.5,30.06,WNW,292,7.0,15.0,27,0.00,,,-99.99,WeatherLink 5.5,2013-03-26 21:40:00,
2013-03-26 17:45:00,65.4,30.5,30.06,WNW,292,7.0,15.0,27,0.00,,,-99.99,WeatherLink 5.5,2013-03-26 21:45:00,
2013-03-26 17:51:00,-563.4,-99.9,30.06,West,270,9.0,17.0,100,0.00,,,-99.99,WeatherLink 5.5,2013-03-26 21:51:00,
2013-03-26 17:55:00,606.9,-99.9,30.07,WNW,292,9.0,18.0,27,0.00,,,-99.99,WeatherLink 5.5,2013-03-26 21:55:00,
2013-03-26 18:01:00,606.9,-99.9,30.07,WNW,292,9.0,18.0,27,0.00,,,-99.99,WeatherLink 5.5,2013-03-26 22:01:00,
2013-03-26 18:11:00,65.0,31.1,30.07,West,270,6.0,16.0,28,0.00,,,-99.99,WeatherLink 5.5,2013-03-26 22:11:00,
2013-03-26 18:15:00,64.9,31.9,30.07,WNW,292,9.0,20.0,29,0.00,,,-99.99,WeatherLink 5.5,2013-03-26 22:15:00,
2013-03-26 18:16:00,65.1,31.2,30.07,West,270,10.0,20.0,28,0.00,,,-99.99,WeatherLink 5.5,2013-03-26 22:16:00,
2013-03-26 18:20:00,64.8,32.6,30.07,WNW,292,9.0,21.0,30,0.00,,,-99.99,WeatherLink 5.5,2013-03-26 22:20:00,
2013-03-26 18:30:00,64.4,32.3,30.07,WNW,292,7.0,15.0,30,0.00,,,-99.99,WeatherLink 5.5,2013-03-26 22:30:00,
2013-03-26 18:40:00,64.2,33.7,30.07,WNW,292,6.0,14.0,32,0.00,,,-99.99,WeatherLink 5.5,2013-03-26 22:40:00,
2013-03-26 18:45:00,64.1,33.6,30.07,WNW,292,8.0,16.0,32,0.00,,,-99.99,WeatherLink 5.5,2013-03-26 22:45:00,
2013-03-26 18:50:00,64.1,33.6,30.07,WNW,292,8.0,16.0,32,0.00,,,-99.99,WeatherLink 5.5,2013-03-26 22:50:00,
2013-03-26 18:55:00,63.7,33.3,30.07,WNW,292,7.0,17.0,32,0.00,,,-99.99,WeatherLink 5.5,2013-03-26 22:55:00,
2013-03-26 19:00:00,63.7,33.3,30.07,WNW,292,7.0,17.0,32,0.00,,,-99.99,WeatherLink 5.5,2013-03-26 23:00:00,
2013-03-26 19:06:00,63.5,33.9,30.07,West,270,6.0,15.0,33,0.00,,,-99.99,WeatherLink 5.5,2013-03-26 23:06:00,
2013-03-26 19:10:00,63.1,33.5,30.08,WNW,292,6.0,14.0,33,0.00,,,-99.99,WeatherLink 5.5,2013-03-26 23:10:00,
2013-03-26 19:16:00,63.1,33.5,30.08,WNW,292,6.0,14.0,33,0.00,,,-99.99,WeatherLink 5.5,2013-03-26 23:16:00,
2013-03-26 19:20:00,62.5,31.4,30.08,WNW,292,7.0,19.0,31,0.00,,,-99.99,WeatherLink 5.5,2013-03-26 23:20:00,
2013-03-26 19:30:00,61.9,29.3,30.09,West,270,6.0,15.0,29,0.00,,,-99.99,WeatherLink 5.5,2013-03-26 23:30:00,
2013-03-26 19:31:00,62.2,30.4,30.08,WNW,292,7.0,16.0,30,0.00,,,-99.99,WeatherLink 5.5,2013-03-26 23:31:00,
2013-03-26 19:40:00,61.3,29.6,30.09,WNW,292,5.0,13.0,30,0.00,,,-99.99,WeatherLink 5.5,2013-03-26 23:40:00,
2013-03-26 19:41:00,61.6,29.8,30.09,West,270,6.0,14.0,30,0.00,,,-99.99,WeatherLink 5.5,2013-03-26 23:41:00,
2013-03-26 19:45:00,61.0,30.9,30.10,West,270,4.0,12.0,32,0.00,,,-99.99,WeatherLink 5.5,2013-03-26 23:45:00,
2013-03-26 19:50:00,60.8,31.5,30.10,West,270,5.0,13.0,33,0.00,,,-99.99,WeatherLink 5.5,2013-03-26 23:50:00,
2013-03-26 19:56:00,60.8,31.5,30.10,West,270,5.0,13.0,33,0.00,,,-99.99,WeatherLink 5.5,2013-03-26 23:56:00,
2013-03-26 20:00:00,60.3,31.0,30.11,West,270,5.0,13.0,33,0.00,,,-99.99,WeatherLink 5.5,2013-03-27 00:00:00,
2013-03-26 20:05:00,60.1,30.1,30.11,West,270,6.0,15.0,32,0.00,,,-99.99,WeatherLink 5.5,2013-03-27 00:05:00,
2013-03-26 20:10:00,59.9,30.7,30.11,WNW,292,4.0,13.0,33,0.00,,,-99.99,WeatherLink 5.5,2013-03-27 00:10:00,
2013-03-26 20:11:00,60.1,30.1,30.11,West,270,6.0,15.0,32,0.00,,,-99.99,WeatherLink 5.5,2013-03-27 00:11:00,
2013-03-26 20:15:00,59.6,31.2,30.12,West,270,3.0,11.0,34,0.00,,,-99.99,WeatherLink 5.5,2013-03-27 00:15:00,
2013-03-26 20:20:00,59.4,31.7,30.12,WNW,292,5.0,12.0,35,0.00,,,-99.99,WeatherLink 5.5,2013-03-27 00:20:00,
2013-03-26 20:21:00,59.6,31.2,30.12,West,270,3.0,11.0,34,0.00,,,-99.99,WeatherLink 5.5,2013-03-27 00:21:00,
2013-03-26 20:25:00,59.2,31.5,30.12,West,270,4.0,10.0,35,0.00,,,-99.99,WeatherLink 5.5,2013-03-27 00:25:00,
2013-03-26 20:30:00,59.0,32.7,30.12,West,270,2.0,8.0,37,0.00,,,-99.99,WeatherLink 5.5,2013-03-27 00:30:00,
2013-03-26 20:31:00,59.2,31.5,30.12,West,270,4.0,10.0,35,0.00,,,-99.99,WeatherLink 5.5,2013-03-27 00:31:00,
2013-03-26 20:35:00,58.8,32.6,30.12,WNW,292,5.0,13.0,37,0.00,,,-99.99,WeatherLink 5.5,2013-03-27 00:35:00,
2013-03-26 20:36:00,59.0,32.7,30.12,West,270,2.0,8.0,37,0.00,,,-99.99,WeatherLink 5.5,2013-03-27 00:36:00,
2013-03-26 20:40:00,58.6,32.4,30.13,West,270,3.0,9.0,37,0.00,,,-99.99,WeatherLink 5.5,2013-03-27 00:40:00,
2013-03-26 20:45:00,58.4,32.9,30.13,West,270,3.0,11.0,38,0.00,,,-99.99,WeatherLink 5.5,2013-03-27 00:45:00,
2013-03-26 20:50:00,58.1,32.6,30.13,WNW,292,2.0,10.0,38,0.00,,,-99.99,WeatherLink 5.5,2013-03-27 00:50:00,
2013-03-26 20:51:00,58.4,32.9,30.13,West,270,3.0,11.0,38,0.00,,,-99.99,WeatherLink 5.5,2013-03-27 00:51:00,
2013-03-26 20:55:00,57.9,33.1,30.12,WNW,292,3.0,9.0,39,0.00,,,-99.99,WeatherLink 5.5,2013-03-27 00:55:00,
2013-03-26 20:56:00,58.1,32.6,30.13,WNW,292,2.0,10.0,38,0.00,,,-99.99,WeatherLink 5.5,2013-03-27 00:56:00,
2013-03-26 21:06:00,57.6,33.4,30.12,West,270,2.0,8.0,40,0.00,,,-99.99,WeatherLink 5.5,2013-03-27 01:06:00,
2013-03-26 21:10:00,57.3,32.5,30.13,West,270,3.0,7.0,39,0.00,,,-99.99,WeatherLink 5.5,2013-03-27 01:10:00,
2013-03-26 21:11:00,57.3,32.5,30.13,West,270,3.0,7.0,39,0.00,,,-99.99,WeatherLink 5.5,2013-03-27 01:11:00,
2013-03-26 21:15:00,57.1,30.4,30.13,WNW,292,5.0,11.0,36,0.00,,,-99.99,WeatherLink 5.5,2013-03-27 01:15:00,
2013-03-26 21:20:00,57.1,31.0,30.13,WNW,292,2.0,8.0,37,0.00,,,-99.99,WeatherLink 5.5,2013-03-27 01:20:00,
2013-03-26 21:21:00,57.1,30.4,30.13,WNW,292,5.0,11.0,36,0.00,,,-99.99,WeatherLink 5.5,2013-03-27 01:21:00,
2013-03-26 21:25:00,56.9,30.2,30.14,WNW,292,3.0,9.0,36,0.00,,,-99.99,WeatherLink 5.5,2013-03-27 01:25:00,
2013-03-26 21:30:00,56.7,31.4,30.14,WNW,292,3.0,8.0,38,0.00,,,-99.99,WeatherLink 5.5,2013-03-27 01:30:00,
2013-03-26 21:31:00,56.9,30.2,30.14,WNW,292,3.0,9.0,36,0.00,,,-99.99,WeatherLink 5.5,2013-03-27 01:31:00,
2013-03-26 21:36:00,56.7,31.4,30.14,WNW,292,3.0,8.0,38,0.00,,,-99.99,WeatherLink 5.5,2013-03-27 01:36:00,
2013-03-26 21:40:00,56.4,31.1,30.14,WNW,292,1.0,6.0,38,0.00,,,-99.99,WeatherLink 5.5,2013-03-27 01:40:00,
2013-03-26 21:41:00,56.6,31.3,30.14,WNW,292,1.0,7.0,38,0.00,,,-99.99,WeatherLink 5.5,2013-03-27 01:41:00,
2013-03-26 21:45:00,56.3,34.1,30.15,WNW,292,1.0,13.0,43,0.00,,,-99.99,WeatherLink 5.5,2013-03-27 01:45:00,
2013-03-26 21:56:00,56.1,33.9,30.15,WNW,292,4.0,11.0,43,0.00,,,-99.99,WeatherLink 5.5,2013-03-27 01:56:00,
2013-03-26 22:01:00,56.2,34.6,30.15,WNW,292,3.0,13.0,44,0.00,,,-99.99,WeatherLink 5.5,2013-03-27 02:01:00,
2013-03-26 22:05:00,55.8,35.3,30.16,WNW,292,2.0,7.0,46,0.00,,,-99.99,WeatherLink 5.5,2013-03-27 02:05:00,
2013-03-26 22:06:00,55.8,35.3,30.16,WNW,292,2.0,7.0,46,0.00,,,-99.99,WeatherLink 5.5,2013-03-27 02:06:00,
2013-03-26 22:10:00,55.6,35.1,30.16,WNW,292,3.0,11.0,46,0.00,,,-99.99,WeatherLink 5.5,2013-03-27 02:10:00,
2013-03-26 22:20:00,55.2,35.3,30.17,WNW,292,1.0,7.0,47,0.00,,,-99.99,WeatherLink 5.5,2013-03-27 02:20:00,
2013-03-26 22:30:00,54.8,34.9,30.17,WNW,292,2.0,8.0,47,0.00,,,-99.99,WeatherLink 5.5,2013-03-27 02:30:00,
2013-03-26 22:31:00,54.8,34.9,30.17,WNW,292,2.0,8.0,47,0.00,,,-99.99,WeatherLink 5.5,2013-03-27 02:31:00,
2013-03-26 22:35:00,54.7,35.4,30.17,WNW,292,2.0,9.0,48,0.00,,,-99.99,WeatherLink 5.5,2013-03-27 02:35:00,
2013-03-26 22:45:00,54.5,35.2,30.17,WNW,292,1.0,5.0,48,0.00,,,-99.99,WeatherLink 5.5,2013-03-27 02:45:00,
2013-03-26 22:50:00,54.3,35.0,30.17,WNW,292,3.0,7.0,48,0.00,,,-99.99,WeatherLink 5.5,2013-03-27 02:50:00,
2013-03-26 22:55:00,54.3,35.0,30.17,NW,315,1.0,7.0,48,0.00,,,-99.99,WeatherLink 5.5,2013-03-27 02:55:00,
2013-03-26 23:00:00,54.2,34.4,30.17,NW,315,4.0,10.0,47,0.00,,,-99.99,WeatherLink 5.5,2013-03-27 03:00:00,
2013-03-26 23:05:00,54.1,33.2,30.17,NW,315,3.0,8.0,45,0.00,,,-99.99,WeatherLink 5.5,2013-03-27 03:05:00,
2013-03-26 23:10:00,54.1,33.2,30.18,NW,315,5.0,12.0,45,0.00,,,-99.99,WeatherLink 5.5,2013-03-27 03:10:00,
2013-03-26 23:11:00,54.1,33.2,30.17,NW,315,3.0,8.0,45,0.00,,,-99.99,WeatherLink 5.5,2013-03-27 03:11:00,
2013-03-26 23:20:00,53.9,33.0,30.18,NW,315,3.0,9.0,45,0.00,,,-99.99,WeatherLink 5.5,2013-03-27 03:20:00,
2013-03-26 23:26:00,53.9,33.0,30.18,NW,315,3.0,9.0,45,0.00,,,-99.99,WeatherLink 5.5,2013-03-27 03:26:00,
2013-03-26 23:30:00,53.6,32.8,30.19,WNW,292,5.0,10.0,45,0.00,,,-99.99,WeatherLink 5.5,2013-03-27 03:30:00,
2013-03-26 23:35:00,53.6,33.3,30.19,WNW,292,3.0,7.0,46,0.00,,,-99.99,WeatherLink 5.5,2013-03-27 03:35:00,
2013-03-26 23:40:00,53.4,34.2,30.19,WNW,292,1.0,6.0,48,0.00,,,-99.99,WeatherLink 5.5,2013-03-27 03:40:00,
2013-03-26 23:45:00,53.4,34.2,30.19,WNW,292,1.0,6.0,48,0.00,,,-99.99,WeatherLink 5.5,2013-03-27 03:45:00,